Location: *
(11.9025°N, 108.4364°E)
Time: 06:18:39
(UTC+00:00)

Daily predictions for brighter satellites

Satellite Brightness Start Highest point End
(mag) Time Altitude Azimuth Time Altitude Azimuth Time Altitude Azimuth
Cosmos 1626 Rocket 4.0 12:01:26 10° NNW 12:05:41 63° W 12:09:56 10° S
CSL-04 Debris 4.4 12:00:50 10° S 12:06:19 76° WSW 12:11:47 10° NNW
Cosmos 1726 Rocket 3.4 12:03:26 10° S 12:07:46 72° E 12:12:08 10° N
GPS 2-15 Rocket1 3.2 12:05:03 10° WNW 12:09:58 71° NNE 12:11:49 37° E
CZ-2C R/B 3.8 12:10:40 29° ENE 12:10:40 29° ENE 12:14:36 10° NNE
Skynet4D Del rocket 4.1 12:06:33 10° SW 12:11:49 40° SSE 12:13:06 34° ESE
STARLINK-43 3.6 12:10:08 10° SSW 12:13:17 47° SSE 12:13:17 47° SSE
Cosmos 1943 Rocket 2.1 12:10:27 10° N 12:16:00 71° ENE 12:19:26 24° SSE
Cosmos 1602 Rocket 4.0 12:13:17 10° NNW 12:17:35 60° W 12:21:50 10° S
ISS -1.1 12:16:31 10° NNE 12:16:48 11° NNE 12:16:48 11° NNE
Ariane Rocket 3.1 12:18:42 40° ESE 12:19:58 50° ENE 12:24:51 10° N
Cosmos 2084 Rocket 3.4 12:16:07 10° NNW 12:20:35 77° ENE 12:21:37 51° SE
Cosmos 1140 Rocket 3.9 12:16:31 10° SSW 12:21:41 64° WNW 12:26:48 10° N
Cosmos 2228 3.8 12:19:32 10° SSW 12:23:40 50° W 12:27:49 10° N
Meteor 1-21 Rocket 4.1 12:21:32 10° N 12:27:04 88° W 12:32:35 11° S
SJ-11-01 4.1 12:26:08 35° SSE 12:28:08 85° E 12:32:50 10° N
Cosmos 2369 Rocket 2.1 12:22:48 10° N 12:28:23 65° ENE 12:29:43 49° SE
Cosmos 1825 Rocket 4.4 12:29:30 10° N 12:32:14 36° NNE 12:32:14 36° NNE
Cosmos 2074 Rocket 3.9 12:29:57 10° N 12:36:15 78° E 12:39:47 28° S
Cosmos 1340 Rocket 3.9 12:41:35 10° SSW 12:45:27 43° W 12:49:19 10° N
Cosmos 1758 Rocket 4.1 12:43:37 10° NNW 12:47:16 55° NW 12:47:16 55° NW
IRS-1A Rocket 4.3 12:50:52 56° S 12:52:05 77° WSW 12:57:48 10° NNW
ARGOS 3.3 12:53:56 65° N 12:53:56 65° N 12:58:28 10° N
Cosmos 2263 4.3 12:49:12 10° NNW 12:53:54 64° N 12:53:54 64° N
DMSP B5D2-2 4.5 12:54:17 10° N 12:59:25 60° WNW 13:04:35 10° SSW
CZ-2C R/B 3.5 13:01:05 10° N 13:04:28 40° NNW 13:04:28 40° NNW
H-2A R/B 4.4 13:42:41 19° W 13:42:41 19° W 13:46:04 10° NW
ATLAS 5 CENTAUR R/B 4.2 14:36:06 10° WNW 15:17:47 23° E 15:47:02 10° E
Centaur AC-119 4.4 20:02:37 86° NE 20:02:37 86° NE 20:30:54 10° ESE
FALCON 9 R/B 4.5 20:19:42 43° SSW 20:24:57 67° SE 21:10:07 10° ENE
SL-16 R/B 3.4 20:22:11 10° N 20:27:26 39° ENE 20:32:40 10° SE
Meteor 1-23 Rocket 4.2 20:38:48 78° ESE 20:38:58 78° E 20:44:41 10° N
Cosmos 2263 Rocket 3.4 20:44:16 29° NNW 20:44:16 29° NNW 20:47:14 10° N
Gblst 52 Del rocket 4.1 20:42:57 83° E 20:42:57 83° E 20:48:18 10° SE
Cosmos 2195 Rocket 4.3 20:50:31 56° SSW 20:51:53 78° W 20:58:03 10° N
Meteor 1-12 Rocket 4.2 20:50:21 10° N 20:56:12 88° W 21:01:56 10° S
Cosmos 1627 Rocket 4.3 20:53:40 37° SSW 20:56:19 79° W 21:02:26 10° N
FUSE 4.3 20:56:15 48° NNW 20:56:27 49° NNW 21:01:35 10° NE
Intelsat 5-3 Rocket 4.3 21:02:17 13° NE 21:02:17 13° NE 21:02:40 10° NE
CZ-4B R/B 4.3 20:57:40 10° NNE 21:01:17 53° E 21:01:51 47° SE
ALOS 4.1 20:59:31 10° NE 21:03:35 30° E 21:07:40 10° SSE
Cosmos 1484 Rocket 4.0 21:01:00 10° NNE 21:04:28 38° E 21:07:34 12° SSE
Meteor 2-13 Rocket 4.3 21:06:34 10° S 21:12:38 86° W 21:18:40 10° N
Lacrosse 5 1.7 21:11:52 44° SW 21:13:28 82° WNW 21:18:32 10° NNE
Cosmos 1437 Rocket 3.1 21:19:48 45° WNW 21:19:48 45° WNW 21:23:21 10° N
TRAILBLAZER 4.4 21:15:39 11° NNW 21:19:55 68° WSW 21:24:22 10° SSE
CZ-4B R/B 3.2 21:17:20 10° NNE 21:21:50 83° ESE 21:26:20 10° S
Sea Lan Dem Rocket 4.2 21:22:37 19° SSW 21:25:28 29° SSE 21:38:23 10° ESE
Palapa B4 Rocket 4.1 21:21:40 29° W 21:26:03 77° NNW 21:31:22 10° ENE
CZ-2C R/B 3.6 21:29:10 10° NNW 21:31:48 20° WNW 21:31:48 20° WNW
Cosmos 2026 Rocket 4.5 21:30:38 19° SW 21:34:13 34° W 21:39:40 10° NNW
Cosmos 1844 4.1 21:31:42 10° S 21:37:11 64° ESE 21:42:39 10° NNE
Skynet4D Del rocket 4.4 21:32:00 15° WNW 21:37:59 80° NNE 21:45:52 10° ESE
METEOR-M 4.2 21:34:20 10° NNE 21:39:40 84° ESE 21:45:01 10° S
STARLINK-1190 4.4 21:35:48 10° SSW 21:39:46 51° SE 21:43:48 10° NE
CRYOSAT 2 4.3 21:37:18 10° N 21:42:10 87° W 21:47:02 10° S
GPS 2-12 Rocket1 3.4 21:43:14 23° W 21:45:35 43° SSW 21:49:48 10° SE
SWIFT 3.5 21:43:13 12° NW 21:46:44 36° NNE 21:50:40 10° E
SeaSat 1 4.1 21:45:44 10° SE 21:50:14 36° ENE 21:54:43 10° N
Cosmos 2266 Rocket 4.2 21:44:04 10° S 21:50:22 77° E 21:56:45 10° N
Meteor 1-31 Rocket 3.9 21:47:28 10° NNW 21:50:35 23° WNW 21:52:24 17° WSW
Meteor PRIRODA 3.9 21:48:20 10° N 21:51:52 46° WNW 21:55:25 10° SSW
FENGYUN 3A 3.6 21:48:29 10° N 21:53:46 63° WNW 21:59:04 10° SSW
Chunghua 1 4.4 21:51:43 11° WNW 21:55:15 83° SW 21:58:55 10° SE
Cosmos 1844 Rocket 2.9 21:58:08 10° SSW 22:03:30 48° WNW 22:08:56 10° N
Cosmos 1455 Rocket 4.2 21:59:30 10° N 22:03:49 49° E 22:08:06 10° SSE
Okean O Rocket 2.9 21:59:52 10° NNE 22:04:05 44° E 22:08:19 10° S
Lacrosse 4 Rocket 1.8 22:00:12 10° SW 22:04:15 45° WNW 22:08:25 10° N
PSLV R/B 4.0 22:00:50 10° N 22:04:44 52° WNW 22:08:33 10° SSW
Aureole 3 Rocket 2.1 22:02:59 10° N 22:06:07 79° W 22:09:08 10° S
ASTRO E2 3.2 22:03:49 10° WNW 22:07:34 42° SSW 22:11:20 10° SE
CZ-3B R/B 0.1 22:07:19 16° W 22:08:07 31° SSW 22:09:34 10° SE
STARLINK-1129 3.7 22:06:59 10° SW 22:11:04 62° NW 22:15:08 10° NNE
SL-16 R/B 3.7 22:08:08 10° WNW 22:11:09 15° WSW 22:14:11 10° SW
Cosmos 1689 Rocket 4.2 22:11:33 10° WSW 22:12:09 10° W 22:12:45 10° W
Cosmos 1655 Rocket 4.5 22:08:48 10° SSW 22:14:40 39° W 22:20:32 10° NNW
ARIANE 2 DEBRIS 4.2 22:04:09 10° W 22:14:50 48° SSW 22:18:13 10° ESE
STARLINK-1134 3.8 22:12:02 10° SW 22:16:04 53° NW 22:20:06 10° NNE
CZ-4B DEB 4.3 22:14:58 10° N 22:20:23 59° WNW 22:25:49 10° SSW
Cosmos 1766 3.5 22:16:57 10° NNW 22:20:38 45° W 22:24:20 10° SSW
STARLINK-1135 4.0 22:17:05 10° SW 22:21:03 46° NW 22:25:01 10° NNE
